STARLINK-4454, 53499

Orbit data source: Space-Track

STARLINK-4454, 53499 is a payload satellite owned by SpaceX/Seattle (US) in SSO that was launched on Fri, 12 Aug 2022 UTC via an FALCON 9 launch vehicle from the Air Force Western Test Range (AFWTR). Payload-class satellites include a variety of spacecraft equipped with specific instruments for various scientific and technological missions. These include communications satellites like Starlink; space stations such as the ISS; scientific satellites like the Hubble; Earth observation satellites from companies like Planet Labs, Umbra, and HawkEye 360; GPS; miniature CubeSats for education and research; and military/defense satellites.

Loading next visibility...
Identifier
53499, 2022-099AL
Orbit
SSO
Country
Flag of USUS
Related business
Manufacturer
SpaceX/Seattle
Mission
Operational Commercial Communications
Bus & Motor
STARLINK, Unknown motor
Mass
300 kg wet, ~275 kg dry
Launch date (UTC)
2022-08-12 (3 years ago)
Launch vehicle
FALCON 9
Launch site
Air Force Western Test Range (AFWTR)
Object type
Payload
Rocket body
Debris
Shape & HBR
Box + 1 Pan, 4.4 m
Radar Cross Section
13.562 m², Large (>1 m²)

Expand to show TLE details & history
Last TLE update: 14 hours ago

TLE from 14 hours ago
0 STARLINK-4454
1 53499U 22099AL  25259.05402164  .00000028  00000-0  66956-5 0  9994
2 53499  97.6024  19.2273 0000583 111.3401 248.7886 15.01262424169782
Epoch: 2025-09-16T01:17Z
TLE epoch observation values (Epoch: 2025-09-16T01:17:47.469Z)
Latitude
-0°
Longitude
4.52968°
Altitude
566.208 km
Speed
7.578 km/s
True Right ascension
01h 16m 54s
True Declination
0° 00' 00"
Sunlit
Object was in full shadow at epoch
Visualization orbit readout
Latitude
Unknown
Longitude
Unknown
Altitude
Unknown
Speed
Unknown
Apparent Right ascension
Unknown
Apparent Declination
Unknown
Sunlit
N/A
Visualization observer readout
Local Sidereal Time
08:15:16
Azimuth
Unknown
Elevation
Unknown
Doppler factor
Unknown
Orbital elements
Apogee altitude
560.406 km
Perigee altitude
559.597 km
Semi-major axis
6,938.139 km
Eccentricity
0.00006
Inclination
97.6024°
RAAN
19.2273°
Arg. of periapsis
111.3401°
True anomaly
248.78237°
Mean anomaly
248.7886°
Eccentric anomaly
248.78549°
Mean motion
3.75559 °/min
Orbital period
95.86 mins
BSTAR
0.0000066956
Loading maneuver chart data...
Computing Atmospheric mass density...
Loading historical data...
Loading historical data...
Loading historical data...
Loading historical data...
Loading historical data...
Loading historical data...
Loading historical data...

Documentation

Showing up to 5 results
|